KJ5IIV Weather Reports


time (UTC)temp
F
wind
direction
speed
knots
gust
knots
rain 1hr
in
rain 24hr
in
rain mn
in
humidity
%
barometer
mb
20260509201241 86 321 0.0 4.3 0.00 0.48 0.48 62 1009.0
20260509200738 86 33 3.5 7.0 0.00 0.48 0.48 59 1009.1
20260509200238 87 81 3.5 5.2 0.00 0.48 0.48 61 1009.2
20260509195734 88 342 2.6 2.6 0.00 0.48 0.48 56 1009.3
20260509195229 88 100 1.7 1.7 0.00 0.48 0.48 58 1009.4
20260509194724 88 91 1.7 4.3 0.00 0.48 0.48 56 1009.4
20260509194221 88 57 2.6 2.6 0.00 0.48 0.48 59 1009.4
20260509193718 87 252 3.5 3.5 0.00 0.48 0.48 62 1009.5
20260509193217 86 136 0.0 4.3 0.00 0.48 0.48 61 1009.6
20260509192714 86 232 2.6 3.5 0.00 0.48 0.48 64 1009.4
20260509192209 85 68 2.6 5.2 0.00 0.48 0.48 62 1009.6
20260509191705 85 87 1.7 7.8 0.00 0.48 0.48 67 1009.8
20260509191201 85 79 0.9 4.3 0.00 0.48 0.48 62 1009.6
20260509190657 84 322 1.7 3.5 0.00 0.48 0.48 61 1009.8
20260509190155 84 21 0.9 3.5 0.00 0.48 0.48 65 1009.9
20260509185653 84 99 3.5 5.2 0.00 0.48 0.48 65 1009.9
20260509185148 85 72 2.6 4.3 0.00 0.48 0.48 67 1009.9
20260509184646 83 224 0.0 3.5 0.00 0.48 0.48 67 1010.0
20260509184142 84 40 2.6 4.3 0.00 0.48 0.48 69 1009.8
20260509183639 83 278 0.0 3.5 0.00 0.48 0.48 68 1010.1
20260509183134 83 13 1.7 4.3 0.00 0.48 0.48 68 1009.9
20260509182630 82 53 2.6 4.3 0.00 0.48 0.48 70 1010.0
20260509182128 82 110 3.5 3.5 0.00 0.48 0.48 73 1010.1
20260509181626 83 69 1.7 3.5 0.00 0.48 0.48 69 1010.1
20260509181123 82 101 1.7 1.7 0.00 0.48 0.48 74 1010.1
20260509180619 81 356 1.7 3.5 0.00 0.48 0.48 72 1010.3
20260509180116 82 97 2.6 3.5 0.00 0.48 0.48 70 1010.3
20260509175611 82 138 1.7 2.6 0.00 0.48 0.48 69 1010.2
20260509175109 82 28 2.6 4.3 0.00 0.48 0.48 71 1010.3
20260509174605 83 15 1.7 2.6 0.00 0.48 0.48 68 1010.5
20260509174100 84 173 2.6 2.6 0.00 0.48 0.48 69 1010.6
20260509173555 82 245 0.0 1.7 0.00 0.48 0.48 72 1010.3
20260509173051 82 75 2.6 2.6 0.00 0.48 0.48 73 1010.6
20260509172549 80 87 1.7 3.5 0.00 0.48 0.48 74 1010.5
20260509172044 79 255 0.0 1.7 0.00 0.48 0.48 78 1010.6
20260509171540 80 103 1.7 3.5 0.00 0.48 0.48 78 1010.7
20260509171037 81 75 1.7 4.3 0.00 0.48 0.48 74 1010.6
20260509170533 80 288 0.0 2.6 0.00 0.48 0.48 76 1010.8
20260509170029 79 129 0.9 1.7 0.00 0.48 0.48 79 1010.7
20260509165527 79 114 0.0 1.7 0.00 0.48 0.48 80 1010.7
20260509165023 79 185 0.9 0.9 0.00 0.48 0.48 78 1010.9
20260509164520 79 35 0.0 0.9 0.00 0.48 0.48 80 1010.9
20260509164016 79 164 0.0 0.9 0.00 0.48 0.48 79 1010.8
20260509163514 79 71 1.7 2.6 0.00 0.48 0.48 77 1010.7
20260509163014 79 293 0.0 1.7 0.00 0.48 0.48 81 1010.7
20260509162512 79 136 1.7 2.6 0.00 0.48 0.48 77 1010.7
20260509162008 79 306 0.0 2.6 0.00 0.48 0.48 80 1010.7
20260509161505 78 10 0.9 2.6 0.00 0.48 0.48 83 1010.6
20260509160959 78 57 1.7 2.6 0.00 0.48 0.48 84 1010.8
20260509160455 78 87 1.7 3.5 0.00 0.48 0.48 85 1010.9
20260509155956 78 72 3.5 4.3 0.00 0.48 0.48 84 1010.8
20260509155453 77 81 1.7 3.5 0.00 0.48 0.48 87 1010.8
20260509154949 75 77 0.9 2.6 0.00 0.48 0.48 89 1010.7
20260509154445 75 98 1.7 2.6 0.00 0.48 0.48 90 1010.7
20260509153943 75 208 0.0 1.7 0.00 0.48 0.48 90 1010.9
20260509153439 74 61 1.7 3.5 0.00 0.48 0.48 91 1010.8
20260509152937 74 118 1.7 3.5 0.00 0.48 0.48 90 1010.7
20260509152432 74 72 2.6 4.3 0.00 0.48 0.48 91 1010.6
20260509151930 74 103 0.0 2.6 0.00 0.48 0.48 91 1010.7
20260509151425 74 357 0.9 2.6 0.00 0.48 0.48 91 1010.6
20260509150924 74 109 1.7 3.5 0.00 0.48 0.48 92 1010.2
20260509150421 74 43 1.7 2.6 0.00 0.48 0.48 92 1010.6
20260509145919 73 88 0.9 1.7 0.00 0.48 0.48 91 1010.3
20260509145419 73 94 0.9 2.6 0.00 0.48 0.48 92 1010.3
20260509144915 73 83 2.6 2.6 0.00 0.48 0.48 91 1010.6
20260509144412 74 63 0.0 1.7 0.00 0.48 0.48 91 1010.7
20260509143909 74 83 1.7 2.6 0.00 0.48 0.48 91 1010.6
20260509143407 74 115 1.7 1.7 0.00 0.48 0.48 94 1010.6
20260509142903 73 41 0.9 1.7 0.00 0.48 0.48 96 1010.7
20260509142359 73 233 0.0 2.6 0.00 0.48 0.48 97 1010.6
20260509141855 72 103 0.0 3.5 0.00 0.48 0.48 98 1010.6
20260509141352 72 239 2.6 3.5 0.00 0.48 0.48 98 1010.8
20260509140848 72 219 1.7 3.5 0.00 0.48 0.48 98 1010.6
20260509140345 71 125 0.9 1.7 0.00 0.48 0.48 98 1010.7
20260509135843 71 58 1.7 3.5 0.00 0.48 0.48 99 1010.7
20260509135341 70 88 2.6 3.5 0.00 0.48 0.48 98 1010.9
20260509134838 69 105 2.6 2.6 0.00 0.48 0.48 98 1011.1
20260509134335 69 96 1.7 1.7 0.02 0.48 0.48 98 1011.2
20260509133832 68 72 1.7 1.7 0.02 0.48 0.48 98 1011.3
20260509133328 68 57 0.0 0.9 0.02 0.48 0.48 98 1011.2
20260509132827 68 101 0.9 1.7 0.02 0.48 0.48 98 1011.3
20260509132326 68 344 0.0 0.9 0.00 0.47 0.47 98 1011.5
20260509131822 68 0 0.0 0.9 0.00 0.47 0.47 98 1011.5
20260509131319 68 342 0.0 1.7 0.00 0.47 0.47 98 1011.3
20260509130815 68 86 0.9 1.7 0.00 0.47 0.47 98 1011.2
20260509130311 68 38 0.0 1.7 0.00 0.47 0.47 98 1011.4
20260509125808 68 338 0.0 1.7 0.00 0.47 0.47 98 1011.2
20260509125307 67 60 0.0 0.9 0.00 0.47 0.47 98 1011.1
20260509124801 67 16 1.7 1.7 0.00 0.47 0.47 98 1011.0
20260509124257 67 43 0.9 1.7 0.00 0.47 0.47 98 1011.1
20260509123755 68 18 0.0 1.7 0.00 0.47 0.47 98 1011.2
20260509123253 68 12 0.9 1.7 0.00 0.47 0.47 98 1011.0
20260509122748 68 40 0.9 1.7 0.00 0.47 0.47 98 1011.2
20260509122245 68 15 1.7 1.7 0.00 0.47 0.47 98 1011.0
20260509121742 68 354 0.0 1.7 0.00 0.47 0.47 98 1010.8
20260509121239 68 73 1.7 1.7 0.00 0.47 0.47 98 1010.7
20260509120737 68 60 0.0 1.7 0.00 0.47 0.47 98 1010.8
20260509120235 68 50 1.7 1.7 0.00 0.47 0.47 98 1010.7
20260509115733 68 46 0.9 1.7 0.00 0.47 0.47 98 1010.7
20260509115230 68 28 0.9 2.6 0.00 0.47 0.47 98 1010.6
20260509114728 68 317 1.7 1.7 0.00 0.47 0.47 98 1010.3
20260509114226 68 75 2.6 2.6 0.00 0.47 0.47 98 1009.8
20260509113725 68 65 0.0 1.7 0.00 0.47 0.47 98 1009.8
20260509113221 68 81 0.9 1.7 0.00 0.47 0.47 98 1009.7
20260509112718 68 47 1.7 2.6 0.00 0.47 0.47 98 1009.4
20260509112215 67 70 0.0 1.7 0.00 0.47 0.47 98 1009.5
20260509111712 67 122 0.0 1.7 0.00 0.47 0.47 98 1009.2
20260509111209 67 134 0.9 0.9 0.00 0.47 0.47 98 1009.3
20260509110707 67 336 0.0 1.7 0.00 0.47 0.47 98 1009.2
20260509110203 67 55 1.7 1.7 0.00 0.47 0.47 98 1009.1
20260509105701 67 80 2.6 2.6 0.00 0.47 0.47 98 1008.9
20260509105158 67 22 0.0 1.7 0.00 0.47 0.47 98 1008.8
20260509104655 66 53 0.0 1.7 0.00 0.47 0.47 98 1009.0
20260509104152 66 261 1.7 1.7 0.00 0.47 0.47 98 1009.0
20260509103650 66 131 0.9 1.7 0.00 0.47 0.47 98 1008.9
20260509103148 66 283 0.0 1.7 0.00 0.47 0.47 98 1009.1
20260509102645 66 51 0.0 0.9 0.00 0.47 0.47 98 1009.0
20260509102142 66 129 0.9 0.9 0.00 0.47 0.47 98 1008.8
20260509101638 66 45 0.0 0.9 0.00 0.47 0.47 98 1009.0
20260509101135 66 224 0.0 0.9 0.00 0.47 0.47 98 1009.3
20260509100632 66 82 1.7 1.7 0.00 0.47 0.47 98 1009.2
20260509100130 65 69 0.0 0.9 0.00 0.47 0.47 98 1009.2
20260509095626 65 83 0.0 1.7 0.00 0.47 0.47 98 1009.4
20260509095123 65 79 0.9 1.7 0.00 0.47 0.47 98 1009.5
20260509094619 65 23 0.0 0.0 0.00 0.47 0.47 98 1009.5
20260509094117 65 339 0.0 0.9 0.00 0.47 0.47 98 1009.2
20260509093615 65 326 0.0 0.9 0.00 0.47 0.47 98 1009.3
20260509093112 65 98 1.7 1.7 0.00 0.47 0.47 98 1009.4
20260509092610 65 256 0.0 1.7 0.00 0.47 0.47 98 1009.1
20260509092108 65 123 0.0 1.7 0.00 0.47 0.47 98 1009.2
20260509091606 65 86 1.7 2.6 0.00 0.47 0.47 98 1009.2
20260509091102 65 165 0.0 1.7 0.00 0.47 0.47 98 1009.3
20260509090559 64 5 0.0 0.0 0.00 0.47 0.47 98 1009.4
20260509090057 64 309 0.0 0.9 0.00 0.47 0.47 98 1009.3
20260509085554 64 113 0.0 0.9 0.00 0.47 0.47 97 1009.2
20260509085050 64 66 0.9 1.7 0.00 0.47 0.47 97 1009.4
20260509084547 64 113 0.0 1.7 0.00 0.47 0.47 97 1009.9
20260509084044 64 84 0.9 1.7 0.00 0.47 0.47 97 1009.7
20260509083542 64 224 0.9 1.7 0.00 0.47 0.47 97 1009.9
20260509083038 64 337 0.0 0.9 0.00 0.47 0.47 97 1010.0
20260509082536 64 334 0.0 0.9 0.00 0.47 0.47 97 1010.2
20260509082032 64 212 0.0 0.9 0.00 0.47 0.47 97 1010.1
20260509081530 63 135 0.0 0.9 0.00 0.47 0.47 97 1010.3
20260509081026 63 229 0.0 1.7 0.00 0.47 0.47 97 1010.0
20260509080525 63 233 0.0 0.9 0.00 0.47 0.47 97 1010.0
20260509080022 63 153 0.9 0.9 0.00 0.47 0.47 97 1009.9
20260509075519 63 106 0.0 0.9 0.00 0.47 0.47 97 1009.9
20260509075017 63 78 0.0 0.9 0.00 0.47 0.47 97 1010.1
20260509074514 63 20 0.9 1.7 0.00 0.47 0.47 97 1010.1
20260509074010 63 140 0.0 1.7 0.00 0.47 0.47 97 1009.9
20260509073507 63 303 0.0 1.7 0.00 0.47 0.47 97 1010.1
20260509073003 63 166 0.0 1.7 0.00 0.47 0.47 97 1010.0
20260509072500 63 126 0.9 1.7 0.00 0.47 0.47 97 1010.5
20260509071957 63 2 0.9 0.9 0.00 0.47 0.47 97 1010.5
20260509071453 63 70 0.0 1.7 0.00 0.47 0.47 97 1010.3
20260509070952 63 195 0.0 1.7 0.00 0.47 0.47 97 1010.1
20260509070448 63 209 0.0 0.9 0.00 0.47 0.47 97 1010.9
20260509065943 63 202 0.0 0.9 0.00 0.47 0.47 97 1011.1
20260509065440 62 154 0.0 0.9 0.00 0.47 0.47 96 1011.1
20260509064937 62 19 0.9 1.7 0.00 0.47 0.47 96 1011.2
20260509064435 62 229 0.0 1.7 0.00 0.47 0.47 96 1011.0
20260509063933 62 8 2.6 3.5 0.00 0.47 0.47 96 1011.3
20260509063433 62 25 0.9 2.6 0.00 0.47 0.47 96 1011.2
20260509062930 62 45 0.0 1.7 0.00 0.47 0.47 96 1010.8
20260509062428 62 32 0.0 1.7 0.00 0.47 0.47 96 1010.9
20260509061925 62 2 1.7 1.7 0.00 0.47 0.47 96 1010.5
20260509061422 62 352 0.9 1.7 0.00 0.47 0.47 96 1010.6
20260509060919 62 36 0.9 2.6 0.00 0.47 0.47 95 1010.7
20260509060417 62 2 0.0 1.7 0.00 0.47 0.47 95 1010.6
20260509055911 62 260 0.0 2.6 0.00 0.47 0.47 95 1010.3
20260509055407 62 165 1.7 1.7 0.00 0.47 0.47 95 1010.6
20260509054904 62 69 0.0 3.5 0.00 0.47 0.47 94 1010.3
20260509054401 62 309 0.9 3.5 0.02 0.47 0.47 94 1010.9
20260509053859 62 128 0.0 3.5 0.14 0.47 0.47 93 1011.4
20260509053356 62 106 2.6 5.2 0.19 0.46 0.46 92 1011.0
20260509052854 62 113 1.7 2.6 1.21 0.45 0.45 91 1011.2
20260509052351 62 104 3.5 7.8 1.70 0.42 0.42 89 1012.4
20260509051849 63 66 6.1 8.7 1.06 0.22 0.22 87 1012.8
20260509051347 67 336 7.0 9.6 0.76 0.13 0.13 86 1012.9
20260509050843 69 337 3.5 7.0 0.26 0.04 0.04 88 1012.9
20260509050340 70 125 1.7 1.7 0.05 0.01 0.01 85 1012.2
20260509045837 69 104 2.6 3.5 0.00 0.00 0.00 84 1011.7
20260509045334 69 69 2.6 3.5 0.00 0.00 0.00 83 1011.3
20260509044831 69 78 3.5 6.1 0.00 0.00 0.00 84 1011.4
20260509044329 69 56 3.5 5.2 0.00 0.00 0.00 84 1011.6
20260509043825 69 33 0.9 2.6 0.00 0.00 0.00 85 1011.6
20260509043321 69 37 1.7 3.5 0.00 0.00 0.00 84 1011.4
20260509042817 69 21 0.9 2.6 0.00 0.00 0.00 84 1011.1
20260509042314 69 100 1.7 2.6 0.00 0.00 0.00 84 1010.9
20260509041810 69 100 1.7 2.6 0.00 0.00 0.00 84 1010.9
20260509041308 69 92 1.7 2.6 0.00 0.00 0.00 84 1011.0
20260509040806 69 39 1.7 3.5 0.00 0.00 0.00 84 1010.8
20260509040303 69 83 2.6 3.5 0.00 0.00 0.00 85 1010.6
20260509035800 69 88 1.7 2.6 0.00 0.00 0.00 84 1010.6
20260509035257 69 88 0.0 1.7 0.00 0.00 0.00 85 1010.8
20260509034753 69 37 0.0 2.6 0.00 0.00 0.00 85 1010.6
20260509034251 69 91 1.7 2.6 0.00 0.00 0.00 85 1010.3
20260509033748 69 99 1.7 2.6 0.00 0.00 0.00 85 1010.1
20260509033245 69 21 1.7 1.7 0.00 0.00 0.00 84 1010.2
20260509032742 69 155 0.9 1.7 0.00 0.00 0.00 83 1010.1
20260509032239 69 111 0.9 2.6 0.00 0.00 0.00 82 1009.8
20260509031736 69 98 0.0 1.7 0.00 0.00 0.00 81 1010.1
20260509031234 69 240 0.0 1.7 0.00 0.00 0.00 81 1009.9
20260509030731 70 351 0.0 1.7 0.00 0.00 0.00 82 1009.9
20260509030229 70 120 0.0 1.7 0.00 0.00 0.00 81 1010.0
20260509025725 70 109 1.7 1.7 0.00 0.00 0.00 82 1010.2
20260509025221 70 84 0.9 1.7 0.00 0.00 0.00 82 1010.1
20260509024717 70 71 0.9 1.7 0.00 0.00 0.00 83 1009.8
20260509024212 70 130 0.0 0.9 0.00 0.00 0.00 82 1010.0
20260509023710 70 10 1.7 2.6 0.00 0.00 0.00 80 1009.7
20260509023207 70 192 0.0 1.7 0.00 0.00 0.00 81 1009.5
20260509022703 70 122 1.7 1.7 0.00 0.00 0.00 81 1009.4
20260509022201 70 114 0.9 1.7 0.00 0.00 0.00 81 1009.6
20260509021658 70 106 1.7 1.7 0.00 0.00 0.00 81 1009.8
20260509021155 70 93 1.7 1.7 0.00 0.00 0.00 82 1009.5
20260509020653 70 95 0.9 1.7 0.00 0.00 0.00 80 1009.5
20260509020150 69 152 1.7 1.7 0.00 0.00 0.00 80 1009.2
20260509015648 69 130 0.0 1.7 0.00 0.00 0.00 80 1009.2
20260509015146 69 123 1.7 1.7 0.00 0.00 0.00 81 1009.2
20260509014642 69 88 0.0 1.7 0.00 0.00 0.00 80 1009.0
20260509014139 69 86 0.9 1.7 0.00 0.00 0.00 79 1009.0
20260509013636 70 97 1.7 1.7 0.00 0.00 0.00 78 1009.0
20260509013131 70 111 0.0 1.7 0.00 0.00 0.00 78 1009.0
20260509012628 70 180 0.0 1.7 0.00 0.00 0.00 77 1009.0
20260509012125 70 126 0.9 1.7 0.00 0.00 0.00 77 1008.7
20260509011623 70 139 1.7 1.7 0.00 0.00 0.00 76 1008.8
20260509011120 71 120 0.9 1.7 0.00 0.00 0.00 76 1008.7
20260509010617 71 171 0.0 1.7 0.00 0.00 0.00 76 1008.7
20260509010114 72 93 0.0 1.7 0.00 0.00 0.00 75 1008.7
20260509005612 72 105 1.7 1.7 0.00 0.00 0.00 74 1008.5
20260509005107 72 125 0.0 1.7 0.00 0.00 0.00 73 1008.3
20260509004604 72 115 0.9 0.9 0.00 0.00 0.00 73 1008.5
20260509004101 73 133 0.0 1.7 0.00 0.00 0.00 71 1008.6
20260509003559 73 58 0.0 1.7 0.00 0.00 0.00 70 1008.8
20260509003056 73 114 0.9 1.7 0.00 0.00 0.00 70 1008.7
20260509002554 74 151 0.0 1.7 0.00 0.00 0.00 70 1008.8
20260509002051 74 168 0.0 2.6 0.00 0.00 0.00 69 1008.9
20260509001548 75 73 0.9 1.7 0.00 0.00 0.00 68 1008.9
20260509001044 75 74 1.7 1.7 0.00 0.00 0.00 68 1008.9
20260509000543 75 110 0.0 1.7 0.00 0.00 0.00 66 1008.8
20260509000038 75 129 0.9 0.9 0.00 0.00 0.00 68 1009.1
20260508235536 75 156 0.9 0.9 0.00 0.00 0.00 67 1009.1
20260508235032 75 123 0.9 3.5 0.00 0.00 0.00 63 1009.0
20260508234530 75 68 0.9 1.7 0.00 0.00 0.00 65 1009.1
20260508234027 75 67 0.9 1.7 0.00 0.00 0.00 63 1009.0
20260508233526 75 116 1.7 1.7 0.00 0.00 0.00 62 1009.2
20260508233023 75 274 2.6 4.3 0.00 0.00 0.00 64 1009.1
20260508232520 75 168 1.7 3.5 0.00 0.00 0.00 64 1008.9
20260508232017 75 353 0.9 3.5 0.00 0.00 0.00 63 1008.2
20260508231514 75 165 1.7 3.5 0.00 0.00 0.00 65 1008.0
20260508231011 74 206 3.5 5.2 0.00 0.00 0.00 65 1007.7
20260508230508 74 92 1.7 5.2 0.00 0.00 0.00 67 1007.6
20260508230005 74 238 1.7 3.5 0.00 0.00 0.00 65 1008.0
20260508225502 75 306 3.5 12.2 0.00 0.00 0.00 63 1006.9
20260508224959 75 129 4.3 11.3 0.00 0.00 0.00 63 1006.4
20260508224456 76 94 3.5 5.2 0.00 0.00 0.00 63 1009.0
20260508223953 76 9 1.7 1.7 0.00 0.00 0.00 63 1009.9
20260508223451 76 149 0.9 2.6 0.00 0.00 0.00 62 1009.3
20260508222948 76 15 1.7 4.3 0.00 0.00 0.00 61 1009.4
20260508222446 76 81 1.7 2.6 0.00 0.00 0.00 59 1009.5
20260508221942 76 182 0.9 5.2 0.00 0.00 0.00 61 1009.2
20260508221438 77 133 0.9 1.7 0.00 0.00 0.00 61 1009.7
20260508220934 77 112 0.9 1.7 0.00 0.00 0.00 58 1010.0
20260508220431 78 33 0.0 0.9 0.00 0.00 0.00 58 1010.2
20260508215927 78 118 0.9 2.6 0.00 0.00 0.00 55 1010.0
20260508215425 77 156 0.0 1.7 0.00 0.00 0.00 57 1010.0
20260508214921 77 215 0.9 1.7 0.00 0.00 0.00 56 1009.9
20260508214419 78 4 1.7 3.5 0.00 0.00 0.00 55 1009.9
20260508213914 79 263 0.0 2.6 0.00 0.00 0.00 54 1009.7
20260508213412 79 203 0.9 1.7 0.00 0.00 0.00 52 1009.6
20260508212907 80 89 0.0 4.3 0.00 0.00 0.00 51 1009.6
20260508212404 80 89 0.0 2.6 0.00 0.00 0.00 48 1009.8
20260508211900 80 159 0.0 3.5 0.00 0.00 0.00 49 1009.7
20260508211356 81 185 1.7 1.7 0.00 0.00 0.00 48 1009.8
20260508210854 81 45 4.3 5.2 0.00 0.00 0.00 46 1009.8
20260508210350 81 263 2.6 4.3 0.00 0.00 0.00 46 1009.7
20260508205846 83 52 3.5 6.1 0.00 0.00 0.00 41 1009.7
20260508205343 83 336 0.9 3.5 0.00 0.00 0.00 45 1009.7
20260508204839 83 192 0.9 5.2 0.00 0.00 0.00 44 1009.6
20260508204336 82 84 1.7 4.3 0.00 0.00 0.00 45 1009.8
20260508203832 82 56 2.6 3.5 0.00 0.00 0.00 47 1009.9
20260508203329 80 58 2.6 7.0 0.00 0.00 0.00 48 1009.9
20260508202824 81 250 2.6 4.3 0.00 0.00 0.00 47 1009.8
20260508202322 82 19 0.9 1.7 0.00 0.00 0.00 47 1009.9
20260508201819 80 60 3.5 7.8 0.00 0.00 0.00 50 1010.0